User: anonymous
Location: Unspecified
(0.0000°N, 0.0000°E)
Time: 19:31:34
(UTC+02:00)
Language:

Cosmos 1437 - Orbit

View from above orbital plane
View from above orbital plane
View from above satellite
View from above satellite

Ground track
Ground track

The orbit data is extracted from the following two-line orbital elements,

1 13770U 83003A   14244.15299538  .00008809  00000-0  28442-3 0  6332
2 13770 081.1657 305.5578 0010620 210.4930 179.7783 15.31931758729204
Epoch (UTC): 01 September 2014 03:40:18
Eccentricity: 0.0010620
inclination: 81.1657°
perigee height: 463 km
apogee height: 477 km
right ascension of ascending node: 305.5578°
argument of perigee: 210.4930°
revolutions per day: 15.31931758
mean anomaly at epoch: 179.7783°
orbit number at epoch: 72920

The dashed part of the orbit path shows where the satellite is in the earth's shadow,  

DLR